Terminal Aerodrome Forecast
Issued by NWS

Home | Current Version | Previous Version | Text Only | Print | Product List | Glossary On
Versions: 1 2 3 4 5 6 7 8 9 10 11 12 13
000
FTUS43 KAPX 202325
TAFMBL
TAF
KMBL 202325Z 2100/2124 14011KT P6SM OVC200 WS020/15040KT
     FM210600 16009KT P6SM VCSH SCT040 OVC090 WS020/18045KT
     FM210800 19009KT 4SM -SHRA OVC035 WS020/19040KT
     FM211000 21009KT 4SM -SHRA SCT003 OVC010
     FM211500 27006KT P6SM VCSH BKN003
     FM211700 27006KT P6SM SCT015 BKN025
     FM211900 27006KT P6SM SCT035=

USA.gov is the U.S. government's official web portal to all federal, state and local government web resources and services.